owner,sensor,date,latitude,longitude,vertical_datum,sea_water_practical_salinity,qcFlag 
DISL,ioos:station:DISL:KATA:1,2017-03-01T00:00:00Z,30.2583,-88.2131,3.942,29.06,1111122 
DISL,ioos:station:DISL:KATA:1,2017-03-01T00:30:00Z,30.2583,-88.2131,3.939,29.02,1111122 
DISL,ioos:station:DISL:KATA:1,2017-03-01T01:00:00Z,30.2583,-88.2131,3.958,28.85,1111122 
DISL,ioos:station:DISL:KATA:1,2017-03-01T01:30:00Z,30.2583,-88.2131,3.983,28.94,1111122 
DISL,ioos:station:DISL:KATA:1,2017-03-01T02:00:00Z,30.2583,-88.2131,4.016,29.05,1111122 
DISL,ioos:station:DISL:KATA:1,2017-03-01T02:30:00Z,30.2583,-88.2131,4.059,28.7,1111122 
DISL,ioos:station:DISL:KATA:1,2017-03-01T03:00:00Z,30.2583,-88.2131,4.095,28.67,1111122 
DISL,ioos:station:DISL:KATA:1,2017-03-01T03:30:00Z,30.2583,-88.2131,4.115,28.59,1111122 
DISL,ioos:station:DISL:KATA:1,2017-03-01T04:00:00Z,30.2583,-88.2131,4.131,28.52,1111122 
DISL,ioos:station:DISL:KATA:1,2017-03-01T04:30:00Z,30.2583,-88.2131,4.144,28.41,1111122 
DISL,ioos:station:DISL:KATA:1,2017-03-01T05:00:00Z,30.2583,-88.2131,4.167,28.31,1111122 
DISL,ioos:station:DISL:KATA:1,2017-03-01T05:30:00Z,30.2583,-88.2131,4.161,28.16,1111122 
DISL,ioos:station:DISL:KATA:1,2017-03-01T06:00:00Z,30.2583,-88.2131,4.158,28.1,1111122 
DISL,ioos:station:DISL:KATA:1,2017-03-01T06:30:00Z,30.2583,-88.2131,4.155,27.79,1111122 
DISL,ioos:station:DISL:KATA:1,2017-03-01T07:00:00Z,30.2583,-88.2131,4.157,27.64,1111122 
DISL,ioos:station:DISL:KATA:1,2017-03-01T07:30:00Z,30.2583,-88.2131,4.162,27.73,1111122 
DISL,ioos:station:DISL:KATA:1,2017-03-01T08:00:00Z,30.2583,-88.2131,4.163,27.79,1111122 
DISL,ioos:station:DISL:KATA:1,2017-03-01T08:30:00Z,30.2583,-88.2131,4.171,27.9,1111122 
DISL,ioos:station:DISL:KATA:1,2017-03-01T09:00:00Z,30.2583,-88.2131,4.171,28.19,1111122 
DISL,ioos:station:DISL:KATA:1,2017-03-01T09:30:00Z,30.2583,-88.2131,4.152,28.07,1111122 
DISL,ioos:station:DISL:KATA:1,2017-03-01T10:00:00Z,30.2583,-88.2131,4.133,28.13,1111122 
DISL,ioos:station:DISL:KATA:1,2017-03-01T10:30:00Z,30.2583,-88.2131,4.124,28.05,1111122 
DISL,ioos:station:DISL:KATA:1,2017-03-01T11:00:00Z,30.2583,-88.2131,4.124,28.2,1111122 
DISL,ioos:station:DISL:KATA:1,2017-03-01T11:30:00Z,30.2583,-88.2131,4.111,28.1,1111122 
DISL,ioos:station:DISL:KATA:1,2017-03-01T12:00:00Z,30.2583,-88.2131,4.084,28.16,1111122 
DISL,ioos:station:DISL:KATA:1,2017-03-01T12:30:00Z,30.2583,-88.2131,4.07,28.23,1111122 
DISL,ioos:station:DISL:KATA:1,2017-03-01T13:00:00Z,30.2583,-88.2131,4.069,28.13,1111122 
DISL,ioos:station:DISL:KATA:1,2017-03-01T13:30:00Z,30.2583,-88.2131,4.064,28.12,1111122 
DISL,ioos:station:DISL:KATA:1,2017-03-01T14:00:00Z,30.2583,-88.2131,4.073,28.2,1111122 
DISL,ioos:station:DISL:KATA:1,2017-03-01T14:30:00Z,30.2583,-88.2131,4.078,27.86,1111122 
DISL,ioos:station:DISL:KATA:1,2017-03-01T15:00:00Z,30.2583,-88.2131,4.063,27.76,1111122 
DISL,ioos:station:DISL:KATA:1,2017-03-01T15:30:00Z,30.2583,-88.2131,4.059,28.26,1111122 
DISL,ioos:station:DISL:KATA:1,2017-03-01T16:00:00Z,30.2583,-88.2131,4.047,28.0,1111122 
DISL,ioos:station:DISL:KATA:1,2017-03-01T16:30:00Z,30.2583,-88.2131,4.043,27.94,1111122 
DISL,ioos:station:DISL:KATA:1,2017-03-01T17:00:00Z,30.2583,-88.2131,4.04,27.79,1111122 
DISL,ioos:station:DISL:KATA:1,2017-03-01T17:30:00Z,30.2583,-88.2131,4.026,27.93,1111122 
DISL,ioos:station:DISL:KATA:1,2017-03-01T18:00:00Z,30.2583,-88.2131,4.038,27.95,1111122 
DISL,ioos:station:DISL:KATA:1,2017-03-01T18:30:00Z,30.2583,-88.2131,4.049,27.97,1111122 
DISL,ioos:station:DISL:KATA:1,2017-03-01T19:00:00Z,30.2583,-88.2131,4.055,28.0,1111122 
DISL,ioos:station:DISL:KATA:1,2017-03-01T19:30:00Z,30.2583,-88.2131,4.054,28.08,1111122 
DISL,ioos:station:DISL:KATA:1,2017-03-01T20:00:00Z,30.2583,-88.2131,4.049,28.11,1111122 
DISL,ioos:station:DISL:KATA:1,2017-03-01T20:30:00Z,30.2583,-88.2131,4.053,28.01,1111122 
DISL,ioos:station:DISL:KATA:1,2017-03-01T21:00:00Z,30.2583,-88.2131,4.032,28.01,1111122 
DISL,ioos:station:DISL:KATA:1,2017-03-01T21:30:00Z,30.2583,-88.2131,4.018,28.05,1111122 
DISL,ioos:station:DISL:KATA:1,2017-03-01T22:00:00Z,30.2583,-88.2131,4.014,27.99,1111122 
DISL,ioos:station:DISL:KATA:1,2017-03-01T22:30:00Z,30.2583,-88.2131,3.996,28.0,1111122 
DISL,ioos:station:DISL:KATA:1,2017-03-01T23:00:00Z,30.2583,-88.2131,3.973,27.96,1111122 
DISL,ioos:station:DISL:KATA:1,2017-03-01T23:30:00Z,30.2583,-88.2131,3.977,27.98,1111122 
DISL,ioos:station:DISL:KATA:1,2017-03-02T00:00:00Z,30.2583,-88.2131,3.961,28.15,1111122 
DISL,ioos:station:DISL:KATA:1,2017-03-02T00:30:00Z,30.2583,-88.2131,3.952,27.97,1111122 
DISL,ioos:station:DISL:KATA:1,2017-03-02T01:00:00Z,30.2583,-88.2131,3.95,27.8,1111122 
DISL,ioos:station:DISL:KATA:1,2017-03-02T01:30:00Z,30.2583,-88.2131,3.946,27.69,1111122 
DISL,ioos:station:DISL:KATA:1,2017-03-02T02:00:00Z,30.2583,-88.2131,3.959,27.46,1111122 
DISL,ioos:station:DISL:KATA:1,2017-03-02T02:30:00Z,30.2583,-88.2131,3.985,27.48,1111122 
DISL,ioos:station:DISL:KATA:1,2017-03-02T03:00:00Z,30.2583,-88.2131,4.017,27.63,1111122 
DISL,ioos:station:DISL:KATA:1,2017-03-02T03:30:00Z,30.2583,-88.2131,4.038,27.54,1111122 
DISL,ioos:station:DISL:KATA:1,2017-03-02T04:00:00Z,30.2583,-88.2131,4.064,27.77,1111122 
DISL,ioos:station:DISL:KATA:1,2017-03-02T04:30:00Z,30.2583,-88.2131,4.136,27.78,1111122 
DISL,ioos:station:DISL:KATA:1,2017-03-02T05:00:00Z,30.2583,-88.2131,4.045,27.76,1111122 
DISL,ioos:station:DISL:KATA:1,2017-03-02T05:30:00Z,30.2583,-88.2131,3.983,27.45,1111122 
DISL,ioos:station:DISL:KATA:1,2017-03-02T06:00:00Z,30.2583,-88.2131,3.957,26.76,1111122 
DISL,ioos:station:DISL:KATA:1,2017-03-02T06:30:00Z,30.2583,-88.2131,3.916,25.23,1111122 
DISL,ioos:station:DISL:KATA:1,2017-03-02T07:00:00Z,30.2583,-88.2131,3.895,23.44,1111122 
DISL,ioos:station:DISL:KATA:1,2017-03-02T07:30:00Z,30.2583,-88.2131,3.899,24.33,1111122 
DISL,ioos:station:DISL:KATA:1,2017-03-02T08:00:00Z,30.2583,-88.2131,3.916,22.5,1111122 
DISL,ioos:station:DISL:KATA:1,2017-03-02T08:30:00Z,30.2583,-88.2131,3.873,22.09,1111122 
DISL,ioos:station:DISL:KATA:1,2017-03-02T09:00:00Z,30.2583,-88.2131,3.849,21.67,1111122 
DISL,ioos:station:DISL:KATA:1,2017-03-02T09:30:00Z,30.2583,-88.2131,3.827,21.84,1111122 
DISL,ioos:station:DISL:KATA:1,2017-03-02T10:00:00Z,30.2583,-88.2131,3.852,22.1,1111122 
DISL,ioos:station:DISL:KATA:1,2017-03-02T10:30:00Z,30.2583,-88.2131,3.863,22.18,1111122 
DISL,ioos:station:DISL:KATA:1,2017-03-02T11:00:00Z,30.2583,-88.2131,3.881,22.2,1111122 
DISL,ioos:station:DISL:KATA:1,2017-03-02T11:30:00Z,30.2583,-88.2131,3.898,22.03,1111122 
DISL,ioos:station:DISL:KATA:1,2017-03-02T12:00:00Z,30.2583,-88.2131,3.891,21.88,1111122 
DISL,ioos:station:DISL:KATA:1,2017-03-02T12:30:00Z,30.2583,-88.2131,3.884,21.79,1111122 
DISL,ioos:station:DISL:KATA:1,2017-03-02T13:00:00Z,30.2583,-88.2131,3.881,21.72,1111122 
DISL,ioos:station:DISL:KATA:1,2017-03-02T13:30:00Z,30.2583,-88.2131,3.872,21.92,1111122 
DISL,ioos:station:DISL:KATA:1,2017-03-02T14:00:00Z,30.2583,-88.2131,3.877,21.86,1111122 
DISL,ioos:station:DISL:KATA:1,2017-03-02T14:30:00Z,30.2583,-88.2131,3.905,21.79,1111122 
DISL,ioos:station:DISL:KATA:1,2017-03-02T15:00:00Z,30.2583,-88.2131,3.949,21.82,1111122 
DISL,ioos:station:DISL:KATA:1,2017-03-02T15:30:00Z,30.2583,-88.2131,4.076,21.89,1111122 
DISL,ioos:station:DISL:KATA:1,2017-03-02T16:00:00Z,30.2583,-88.2131,3.989,22.15,1111122 
DISL,ioos:station:DISL:KATA:1,2017-03-02T16:30:00Z,30.2583,-88.2131,4.012,21.94,1111122 
DISL,ioos:station:DISL:KATA:1,2017-03-02T17:00:00Z,30.2583,-88.2131,4.004,21.59,1111122 
DISL,ioos:station:DISL:KATA:1,2017-03-02T17:30:00Z,30.2583,-88.2131,4.012,21.68,1111122 
DISL,ioos:station:DISL:KATA:1,2017-03-02T18:00:00Z,30.2583,-88.2131,4.011,21.88,1111122 
DISL,ioos:station:DISL:KATA:1,2017-03-02T18:30:00Z,30.2583,-88.2131,4.036,22.33,1111122 
DISL,ioos:station:DISL:KATA:1,2017-03-02T19:00:00Z,30.2583,-88.2131,4.072,22.53,1111122 
DISL,ioos:station:DISL:KATA:1,2017-03-02T19:30:00Z,30.2583,-88.2131,4.077,22.54,1111122 
DISL,ioos:station:DISL:KATA:1,2017-03-02T20:00:00Z,30.2583,-88.2131,4.081,22.32,1111122 
DISL,ioos:station:DISL:KATA:1,2017-03-02T20:30:00Z,30.2583,-88.2131,4.098,22.45,1111122 
DISL,ioos:station:DISL:KATA:1,2017-03-02T21:00:00Z,30.2583,-88.2131,4.06,22.55,1111122 
DISL,ioos:station:DISL:KATA:1,2017-03-02T21:30:00Z,30.2583,-88.2131,4.068,22.43,1111122 
DISL,ioos:station:DISL:KATA:1,2017-03-02T22:00:00Z,30.2583,-88.2131,4.052,22.92,1111122 
DISL,ioos:station:DISL:KATA:1,2017-03-02T22:30:00Z,30.2583,-88.2131,3.989,22.58,1111122 
DISL,ioos:station:DISL:KATA:1,2017-03-02T23:00:00Z,30.2583,-88.2131,3.958,22.49,1111122 
DISL,ioos:station:DISL:KATA:1,2017-03-02T23:30:00Z,30.2583,-88.2131,3.928,22.32,1111122 
DISL,ioos:station:DISL:KATA:1,2017-03-03T00:00:00Z,30.2583,-88.2131,3.898,22.03,1111122 
DISL,ioos:station:DISL:KATA:1,2017-03-03T00:30:00Z,30.2583,-88.2131,3.87,20.53,1111122 
DISL,ioos:station:DISL:KATA:1,2017-03-03T01:00:00Z,30.2583,-88.2131,3.837,21.12,1111122 
DISL,ioos:station:DISL:KATA:1,2017-03-03T01:30:00Z,30.2583,-88.2131,3.79,20.0,1111122 
DISL,ioos:station:DISL:KATA:1,2017-03-03T02:00:00Z,30.2583,-88.2131,3.781,19.79,1111122 
DISL,ioos:station:DISL:KATA:1,2017-03-03T02:30:00Z,30.2583,-88.2131,3.775,21.83,1111122 
DISL,ioos:station:DISL:KATA:1,2017-03-03T03:00:00Z,30.2583,-88.2131,3.775,22.81,1111122 
DISL,ioos:station:DISL:KATA:1,2017-03-03T03:30:00Z,30.2583,-88.2131,3.778,21.66,1111122 
DISL,ioos:station:DISL:KATA:1,2017-03-03T04:00:00Z,30.2583,-88.2131,3.761,21.86,1111122 
DISL,ioos:station:DISL:KATA:1,2017-03-03T04:30:00Z,30.2583,-88.2131,3.75,20.77,1111122 
DISL,ioos:station:DISL:KATA:1,2017-03-03T05:00:00Z,30.2583,-88.2131,3.739,20.38,1111122 
DISL,ioos:station:DISL:KATA:1,2017-03-03T05:30:00Z,30.2583,-88.2131,3.722,20.06,1111122 
DISL,ioos:station:DISL:KATA:1,2017-03-03T06:00:00Z,30.2583,-88.2131,3.709,20.0,1111122 
DISL,ioos:station:DISL:KATA:1,2017-03-03T06:30:00Z,30.2583,-88.2131,3.697,19.5,1111122 
DISL,ioos:station:DISL:KATA:1,2017-03-03T07:00:00Z,30.2583,-88.2131,3.687,19.6,1111122 
DISL,ioos:station:DISL:KATA:1,2017-03-03T07:30:00Z,30.2583,-88.2131,3.697,19.23,1111122 
DISL,ioos:station:DISL:KATA:1,2017-03-03T08:00:00Z,30.2583,-88.2131,3.714,19.68,1111122 
DISL,ioos:station:DISL:KATA:1,2017-03-03T08:30:00Z,30.2583,-88.2131,3.736,18.72,1111122 
DISL,ioos:station:DISL:KATA:1,2017-03-03T09:00:00Z,30.2583,-88.2131,3.765,18.45,1111122 
DISL,ioos:station:DISL:KATA:1,2017-03-03T09:30:00Z,30.2583,-88.2131,3.77,18.73,1111122 
DISL,ioos:station:DISL:KATA:1,2017-03-03T10:00:00Z,30.2583,-88.2131,3.777,18.87,1111122 
DISL,ioos:station:DISL:KATA:1,2017-03-03T10:30:00Z,30.2583,-88.2131,3.783,19.11,1111122 
DISL,ioos:station:DISL:KATA:1,2017-03-03T11:00:00Z,30.2583,-88.2131,3.781,19.48,1111122 
DISL,ioos:station:DISL:KATA:1,2017-03-03T11:30:00Z,30.2583,-88.2131,3.776,19.8,1111122 
DISL,ioos:station:DISL:KATA:1,2017-03-03T12:00:00Z,30.2583,-88.2131,3.76,20.47,1111122 
DISL,ioos:station:DISL:KATA:1,2017-03-03T12:30:00Z,30.2583,-88.2131,3.744,20.31,1111122 
DISL,ioos:station:DISL:KATA:1,2017-03-03T13:00:00Z,30.2583,-88.2131,3.746,20.26,1111122 
DISL,ioos:station:DISL:KATA:1,2017-03-03T13:30:00Z,30.2583,-88.2131,3.749,21.22,1111122 
DISL,ioos:station:DISL:KATA:1,2017-03-03T14:00:00Z,30.2583,-88.2131,3.768,20.79,1111122 
DISL,ioos:station:DISL:KATA:1,2017-03-03T14:30:00Z,30.2583,-88.2131,3.799,20.94,1111122 
DISL,ioos:station:DISL:KATA:1,2017-03-03T15:00:00Z,30.2583,-88.2131,3.839,21.12,1111122 
DISL,ioos:station:DISL:KATA:1,2017-03-03T15:30:00Z,30.2583,-88.2131,3.874,20.47,1111122 
DISL,ioos:station:DISL:KATA:1,2017-03-03T16:00:00Z,30.2583,-88.2131,3.912,18.89,1111122 
DISL,ioos:station:DISL:KATA:1,2017-03-03T16:30:00Z,30.2583,-88.2131,3.94,18.46,1111122 
DISL,ioos:station:DISL:KATA:1,2017-03-03T17:00:00Z,30.2583,-88.2131,3.963,18.82,1111122 
DISL,ioos:station:DISL:KATA:1,2017-03-03T17:30:00Z,30.2583,-88.2131,3.991,19.69,1111122 
DISL,ioos:station:DISL:KATA:1,2017-03-03T18:00:00Z,30.2583,-88.2131,4.008,19.27,1111122 
DISL,ioos:station:DISL:KATA:1,2017-03-03T18:30:00Z,30.2583,-88.2131,4.017,19.98,1111122 
DISL,ioos:station:DISL:KATA:1,2017-03-03T19:00:00Z,30.2583,-88.2131,4.027,19.38,1111122 
DISL,ioos:station:DISL:KATA:1,2017-03-03T19:30:00Z,30.2583,-88.2131,4.043,19.36,1111122 
DISL,ioos:station:DISL:KATA:1,2017-03-03T20:00:00Z,30.2583,-88.2131,4.029,19.27,1111122 
DISL,ioos:station:DISL:KATA:1,2017-03-03T20:30:00Z,30.2583,-88.2131,4.021,19.38,1111122 
DISL,ioos:station:DISL:KATA:1,2017-03-03T21:00:00Z,30.2583,-88.2131,4.019,19.7,1111122 
DISL,ioos:station:DISL:KATA:1,2017-03-03T21:30:00Z,30.2583,-88.2131,4.011,19.71,1111122 
DISL,ioos:station:DISL:KATA:1,2017-03-03T22:00:00Z,30.2583,-88.2131,4.008,19.94,1111122 
DISL,ioos:station:DISL:KATA:1,2017-03-03T22:30:00Z,30.2583,-88.2131,3.995,19.88,1111122 
DISL,ioos:station:DISL:KATA:1,2017-03-03T23:00:00Z,30.2583,-88.2131,3.986,19.74,1111122 
DISL,ioos:station:DISL:KATA:1,2017-03-03T23:30:00Z,30.2583,-88.2131,3.964,19.74,1111122 
DISL,ioos:station:DISL:KATA:1,2017-03-04T00:00:00Z,30.2583,-88.2131,3.928,20.27,1111122 
DISL,ioos:station:DISL:KATA:1,2017-03-04T00:30:00Z,30.2583,-88.2131,3.904,19.57,1111122 
DISL,ioos:station:DISL:KATA:1,2017-03-04T01:00:00Z,30.2583,-88.2131,3.853,19.32,1111122 
DISL,ioos:station:DISL:KATA:1,2017-03-04T01:30:00Z,30.2583,-88.2131,3.804,19.58,1111122 
DISL,ioos:station:DISL:KATA:1,2017-03-04T02:00:00Z,30.2583,-88.2131,3.762,18.84,1111122 
DISL,ioos:station:DISL:KATA:1,2017-03-04T02:30:00Z,30.2583,-88.2131,3.723,18.64,1111122 
DISL,ioos:station:DISL:KATA:1,2017-03-04T03:00:00Z,30.2583,-88.2131,3.692,18.2,1111122 
DISL,ioos:station:DISL:KATA:1,2017-03-04T03:30:00Z,30.2583,-88.2131,3.665,17.7,1111122 
DISL,ioos:station:DISL:KATA:1,2017-03-04T04:00:00Z,30.2583,-88.2131,3.661,17.03,1111122 
DISL,ioos:station:DISL:KATA:1,2017-03-04T04:30:00Z,30.2583,-88.2131,3.66,16.97,1111122 
DISL,ioos:station:DISL:KATA:1,2017-03-04T05:00:00Z,30.2583,-88.2131,3.668,18.25,1111122 
DISL,ioos:station:DISL:KATA:1,2017-03-04T05:30:00Z,30.2583,-88.2131,3.683,18.48,1111122 
DISL,ioos:station:DISL:KATA:1,2017-03-04T06:00:00Z,30.2583,-88.2131,3.701,19.36,1111122 
DISL,ioos:station:DISL:KATA:1,2017-03-04T06:30:00Z,30.2583,-88.2131,3.703,18.82,1111122 
DISL,ioos:station:DISL:KATA:1,2017-03-04T07:00:00Z,30.2583,-88.2131,3.704,18.33,1111122 
DISL,ioos:station:DISL:KATA:1,2017-03-04T07:30:00Z,30.2583,-88.2131,3.702,18.67,1111122 
DISL,ioos:station:DISL:KATA:1,2017-03-04T08:00:00Z,30.2583,-88.2131,3.696,18.46,1111122 
DISL,ioos:station:DISL:KATA:1,2017-03-04T08:30:00Z,30.2583,-88.2131,3.701,18.74,1111122 
DISL,ioos:station:DISL:KATA:1,2017-03-04T09:00:00Z,30.2583,-88.2131,3.705,18.44,1111122 
DISL,ioos:station:DISL:KATA:1,2017-03-04T09:30:00Z,30.2583,-88.2131,3.712,18.85,1111122 
DISL,ioos:station:DISL:KATA:1,2017-03-04T10:00:00Z,30.2583,-88.2131,3.703,19.02,1111122 
DISL,ioos:station:DISL:KATA:1,2017-03-04T10:30:00Z,30.2583,-88.2131,3.708,18.78,1111122 
DISL,ioos:station:DISL:KATA:1,2017-03-04T11:00:00Z,30.2583,-88.2131,3.728,18.01,1111122 
DISL,ioos:station:DISL:KATA:1,2017-03-04T11:30:00Z,30.2583,-88.2131,3.737,18.63,1111122 
DISL,ioos:station:DISL:KATA:1,2017-03-04T12:00:00Z,30.2583,-88.2131,3.743,24.28,1111122 
DISL,ioos:station:DISL:KATA:1,2017-03-04T12:30:00Z,30.2583,-88.2131,3.74,25.94,1111122 
DISL,ioos:station:DISL:KATA:1,2017-03-04T13:00:00Z,30.2583,-88.2131,3.743,26.81,1111122 
DISL,ioos:station:DISL:KATA:1,2017-03-04T13:30:00Z,30.2583,-88.2131,3.757,27.27,1111122 
DISL,ioos:station:DISL:KATA:1,2017-03-04T14:00:00Z,30.2583,-88.2131,3.77,27.29,1111122 
DISL,ioos:station:DISL:KATA:1,2017-03-04T14:30:00Z,30.2583,-88.2131,3.781,27.67,1111122 
DISL,ioos:station:DISL:KATA:1,2017-03-04T15:00:00Z,30.2583,-88.2131,3.808,27.21,1111122 
DISL,ioos:station:DISL:KATA:1,2017-03-04T15:30:00Z,30.2583,-88.2131,3.83,27.51,1111122 
DISL,ioos:station:DISL:KATA:1,2017-03-04T16:00:00Z,30.2583,-88.2131,3.855,27.35,1111122 
DISL,ioos:station:DISL:KATA:1,2017-03-04T16:30:00Z,30.2583,-88.2131,3.883,28.7,1111122 
DISL,ioos:station:DISL:KATA:1,2017-03-04T17:00:00Z,30.2583,-88.2131,3.918,27.26,1111122 
DISL,ioos:station:DISL:KATA:1,2017-03-04T17:30:00Z,30.2583,-88.2131,3.948,27.38,1111122 
DISL,ioos:station:DISL:KATA:1,2017-03-04T18:00:00Z,30.2583,-88.2131,3.972,27.74,1111122 
DISL,ioos:station:DISL:KATA:1,2017-03-04T18:30:00Z,30.2583,-88.2131,3.991,27.82,1111122 
DISL,ioos:station:DISL:KATA:1,2017-03-04T19:00:00Z,30.2583,-88.2131,3.989,28.47,1111122 
DISL,ioos:station:DISL:KATA:1,2017-03-04T19:30:00Z,30.2583,-88.2131,3.99,28.57,1111122 
DISL,ioos:station:DISL:KATA:1,2017-03-04T20:00:00Z,30.2583,-88.2131,3.989,28.38,1111122 
DISL,ioos:station:DISL:KATA:1,2017-03-04T20:30:00Z,30.2583,-88.2131,3.978,28.89,1111122 
DISL,ioos:station:DISL:KATA:1,2017-03-04T21:00:00Z,30.2583,-88.2131,3.981,27.99,1111122 
DISL,ioos:station:DISL:KATA:1,2017-03-04T21:30:00Z,30.2583,-88.2131,3.979,29.21,1111122 
DISL,ioos:station:DISL:KATA:1,2017-03-04T22:00:00Z,30.2583,-88.2131,3.974,28.93,1111122 
DISL,ioos:station:DISL:KATA:1,2017-03-04T22:30:00Z,30.2583,-88.2131,3.98,28.36,1111122 
DISL,ioos:station:DISL:KATA:1,2017-03-04T23:00:00Z,30.2583,-88.2131,3.988,28.05,1111122 
DISL,ioos:station:DISL:KATA:1,2017-03-04T23:30:00Z,30.2583,-88.2131,3.977,27.63,1111122 
DISL,ioos:station:DISL:KATA:1,2017-03-05T00:00:00Z,30.2583,-88.2131,3.955,28.35,1111122 
DISL,ioos:station:DISL:KATA:1,2017-03-05T00:30:00Z,30.2583,-88.2131,3.911,29.2,1111122 
DISL,ioos:station:DISL:KATA:1,2017-03-05T01:00:00Z,30.2583,-88.2131,3.871,27.97,1111122 
DISL,ioos:station:DISL:KATA:1,2017-03-05T01:30:00Z,30.2583,-88.2131,3.827,28.15,1111122 
DISL,ioos:station:DISL:KATA:1,2017-03-05T02:00:00Z,30.2583,-88.2131,3.786,29.03,1111122 
DISL,ioos:station:DISL:KATA:1,2017-03-05T02:30:00Z,30.2583,-88.2131,3.753,29.28,1111122 
DISL,ioos:station:DISL:KATA:1,2017-03-05T03:00:00Z,30.2583,-88.2131,3.728,28.48,1111122 
DISL,ioos:station:DISL:KATA:1,2017-03-05T03:30:00Z,30.2583,-88.2131,3.704,28.54,1111122 
DISL,ioos:station:DISL:KATA:1,2017-03-05T04:00:00Z,30.2583,-88.2131,3.689,28.54,1111122 
DISL,ioos:station:DISL:KATA:1,2017-03-05T04:30:00Z,30.2583,-88.2131,3.682,28.51,1111122 
DISL,ioos:station:DISL:KATA:1,2017-03-05T05:00:00Z,30.2583,-88.2131,3.68,28.04,1111122 
DISL,ioos:station:DISL:KATA:1,2017-03-05T05:30:00Z,30.2583,-88.2131,3.677,27.68,1111122 
DISL,ioos:station:DISL:KATA:1,2017-03-05T06:00:00Z,30.2583,-88.2131,3.664,27.29,1111122 
DISL,ioos:station:DISL:KATA:1,2017-03-05T06:30:00Z,30.2583,-88.2131,3.656,28.05,1111122 
DISL,ioos:station:DISL:KATA:1,2017-03-05T07:00:00Z,30.2583,-88.2131,3.651,27.86,1111122 
DISL,ioos:station:DISL:KATA:1,2017-03-05T07:30:00Z,30.2583,-88.2131,3.656,26.76,1111122 
DISL,ioos:station:DISL:KATA:1,2017-03-05T08:00:00Z,30.2583,-88.2131,3.663,27.71,1111122 
DISL,ioos:station:DISL:KATA:1,2017-03-05T08:30:00Z,30.2583,-88.2131,3.657,26.69,1111122 
DISL,ioos:station:DISL:KATA:1,2017-03-05T09:00:00Z,30.2583,-88.2131,3.659,27.15,1111122 
DISL,ioos:station:DISL:KATA:1,2017-03-05T09:30:00Z,30.2583,-88.2131,3.648,29.41,1111122 
DISL,ioos:station:DISL:KATA:1,2017-03-05T10:00:00Z,30.2583,-88.2131,3.665,26.29,1111122 
DISL,ioos:station:DISL:KATA:1,2017-03-05T10:30:00Z,30.2583,-88.2131,3.694,25.36,1111122 
DISL,ioos:station:DISL:KATA:1,2017-03-05T11:00:00Z,30.2583,-88.2131,3.72,25.94,1111122 
DISL,ioos:station:DISL:KATA:1,2017-03-05T11:30:00Z,30.2583,-88.2131,3.758,25.62,1111122 
DISL,ioos:station:DISL:KATA:1,2017-03-05T12:00:00Z,30.2583,-88.2131,3.789,25.42,1111122 
DISL,ioos:station:DISL:KATA:1,2017-03-05T12:30:00Z,30.2583,-88.2131,3.84,27.07,1111122 
DISL,ioos:station:DISL:KATA:1,2017-03-05T13:00:00Z,30.2583,-88.2131,3.881,26.87,1111122 
DISL,ioos:station:DISL:KATA:1,2017-03-05T13:30:00Z,30.2583,-88.2131,3.925,26.55,1111122 
DISL,ioos:station:DISL:KATA:1,2017-03-05T14:00:00Z,30.2583,-88.2131,3.962,26.31,1111122 
DISL,ioos:station:DISL:KATA:1,2017-03-05T14:30:00Z,30.2583,-88.2131,3.988,26.6,1111122 
DISL,ioos:station:DISL:KATA:1,2017-03-05T15:00:00Z,30.2583,-88.2131,4.007,26.6,1111122 
DISL,ioos:station:DISL:KATA:1,2017-03-05T15:30:00Z,30.2583,-88.2131,4.038,26.35,1111122 
DISL,ioos:station:DISL:KATA:1,2017-03-05T16:00:00Z,30.2583,-88.2131,4.05,26.73,1111122 
DISL,ioos:station:DISL:KATA:1,2017-03-05T16:30:00Z,30.2583,-88.2131,4.09,26.14,1111122 
DISL,ioos:station:DISL:KATA:1,2017-03-05T17:00:00Z,30.2583,-88.2131,4.127,27.6,1111122 
DISL,ioos:station:DISL:KATA:1,2017-03-05T17:30:00Z,30.2583,-88.2131,4.165,26.74,1111122 
DISL,ioos:station:DISL:KATA:1,2017-03-05T18:00:00Z,30.2583,-88.2131,4.192,26.89,1111122 
DISL,ioos:station:DISL:KATA:1,2017-03-05T18:30:00Z,30.2583,-88.2131,4.217,27.18,1111122 
DISL,ioos:station:DISL:KATA:1,2017-03-05T19:00:00Z,30.2583,-88.2131,4.227,27.5,1111122 
DISL,ioos:station:DISL:KATA:1,2017-03-05T19:30:00Z,30.2583,-88.2131,4.233,27.57,1111122 
DISL,ioos:station:DISL:KATA:1,2017-03-05T20:00:00Z,30.2583,-88.2131,4.238,26.7,1111122 
DISL,ioos:station:DISL:KATA:1,2017-03-05T20:30:00Z,30.2583,-88.2131,4.236,27.21,1111122 
DISL,ioos:station:DISL:KATA:1,2017-03-05T21:00:00Z,30.2583,-88.2131,4.228,26.46,1111122 
DISL,ioos:station:DISL:KATA:1,2017-03-05T21:30:00Z,30.2583,-88.2131,4.236,26.73,1111122 
DISL,ioos:station:DISL:KATA:1,2017-03-05T22:00:00Z,30.2583,-88.2131,4.229,26.36,1111122 
DISL,ioos:station:DISL:KATA:1,2017-03-05T22:30:00Z,30.2583,-88.2131,4.235,26.63,1111122 
DISL,ioos:station:DISL:KATA:1,2017-03-05T23:00:00Z,30.2583,-88.2131,4.235,26.45,1111122 
DISL,ioos:station:DISL:KATA:1,2017-03-05T23:30:00Z,30.2583,-88.2131,4.222,26.55,1111122 
DISL,ioos:station:DISL:KATA:1,2017-03-06T00:00:00Z,30.2583,-88.2131,4.219,26.54,1111122 
DISL,ioos:station:DISL:KATA:1,2017-03-06T00:30:00Z,30.2583,-88.2131,4.204,26.46,1111122 
DISL,ioos:station:DISL:KATA:1,2017-03-06T01:00:00Z,30.2583,-88.2131,4.188,27.41,1111122 
DISL,ioos:station:DISL:KATA:1,2017-03-06T01:30:00Z,30.2583,-88.2131,4.163,26.98,1111122 
DISL,ioos:station:DISL:KATA:1,2017-03-06T02:00:00Z,30.2583,-88.2131,4.123,27.31,1111122 
DISL,ioos:station:DISL:KATA:1,2017-03-06T02:30:00Z,30.2583,-88.2131,4.109,26.96,1111122 
DISL,ioos:station:DISL:KATA:1,2017-03-06T03:00:00Z,30.2583,-88.2131,4.068,26.86,1111122 
DISL,ioos:station:DISL:KATA:1,2017-03-06T03:30:00Z,30.2583,-88.2131,4.045,26.66,1111122 
DISL,ioos:station:DISL:KATA:1,2017-03-06T04:00:00Z,30.2583,-88.2131,4.014,26.93,1111122 
DISL,ioos:station:DISL:KATA:1,2017-03-06T04:30:00Z,30.2583,-88.2131,3.984,27.53,1111122 
DISL,ioos:station:DISL:KATA:1,2017-03-06T05:00:00Z,30.2583,-88.2131,3.969,26.88,1111122 
DISL,ioos:station:DISL:KATA:1,2017-03-06T05:30:00Z,30.2583,-88.2131,3.955,27.47,1111122 
DISL,ioos:station:DISL:KATA:1,2017-03-06T06:00:00Z,30.2583,-88.2131,3.932,27.28,1111122 
DISL,ioos:station:DISL:KATA:1,2017-03-06T06:30:00Z,30.2583,-88.2131,3.907,26.57,1111122 
DISL,ioos:station:DISL:KATA:1,2017-03-06T07:00:00Z,30.2583,-88.2131,3.902,27.63,1111122 
DISL,ioos:station:DISL:KATA:1,2017-03-06T07:30:00Z,30.2583,-88.2131,3.884,28.88,1111122 
DISL,ioos:station:DISL:KATA:1,2017-03-06T08:00:00Z,30.2583,-88.2131,3.88,28.97,1111122 
DISL,ioos:station:DISL:KATA:1,2017-03-06T08:30:00Z,30.2583,-88.2131,3.878,28.71,1111122 
DISL,ioos:station:DISL:KATA:1,2017-03-06T09:00:00Z,30.2583,-88.2131,3.865,28.75,1111122 
DISL,ioos:station:DISL:KATA:1,2017-03-06T09:30:00Z,30.2583,-88.2131,3.858,28.7,1111122 
DISL,ioos:station:DISL:KATA:1,2017-03-06T10:00:00Z,30.2583,-88.2131,3.86,28.59,1111122 
DISL,ioos:station:DISL:KATA:1,2017-03-06T10:30:00Z,30.2583,-88.2131,3.863,28.54,1111122 
DISL,ioos:station:DISL:KATA:1,2017-03-06T11:00:00Z,30.2583,-88.2131,3.877,28.47,1111122 
DISL,ioos:station:DISL:KATA:1,2017-03-06T11:30:00Z,30.2583,-88.2131,3.893,28.36,1111122 
DISL,ioos:station:DISL:KATA:1,2017-03-06T12:00:00Z,30.2583,-88.2131,3.907,28.67,1111122 
DISL,ioos:station:DISL:KATA:1,2017-03-06T12:30:00Z,30.2583,-88.2131,3.926,28.63,1111122 
DISL,ioos:station:DISL:KATA:1,2017-03-06T13:00:00Z,30.2583,-88.2131,3.951,28.57,1111122 
DISL,ioos:station:DISL:KATA:1,2017-03-06T13:30:00Z,30.2583,-88.2131,3.973,28.62,1111122 
DISL,ioos:station:DISL:KATA:1,2017-03-06T14:00:00Z,30.2583,-88.2131,4.002,28.5,1111122 